Temp_Advection
nan nan nan nan nan nan nan nan nan nan nan nan nan nan nan nan nan nan nan nan nan nan
nan 0 0 0 1 1 1 1 1 0 0 0 0 0 0 0 0 -0 -0 -0 0 nan
nan 0 0 1 1 1 1 1 1 1 0 0 0 0 0 0 -0 -0 -0 -0 -0 nan
nan 0 1 1 1 1 1 1 1 0 0 0 0 0 0 0 -0 -0 -0 -0 -0 nan
nan 1 1 1 1 2 2 0 0 -0 0 0 0 0 0 0 -0 -0 -0 -0 -0 nan
nan 2 1 1 2 1 1 -0 0 0 0 0 0 0 0 -0 -0 -0 -0 -0 -0 nan
nan 2 2 2 1 0 0 0 0 0 0 0 0 0 0 -0 -0 -0 -0 -0 -0 nan
nan 2 1 1 0 0 0 0 0 0 0 0 0 0 -0 -0 -0 -0 -0 -0 -0 nan
nan 1 0 0 0 0 0 0 0 0 0 0 -0 -0 -0 -0 -0 -0 -0 -0 -0 nan
nan 0 0 1 1 0 0 0 0 0 0 0 0 -0 -0 -0 -0 -0 -0 -0 -1 nan
nan 0 1 1 1 0 0 0 0 0 0 0 -0 -0 -0 -0 -0 -0 -0 -0 -0 nan
nan 1 1 0 0 0 0 0 0 0 0 0 -0 -0 0 -0 -0 -0 -0 -0 -0 nan
nan 1 1 0 0 0 0 0 0 -0 -0 0 0 -0 -0 -0 -0 -0 -1 -0 -0 nan
nan nan nan nan nan nan nan nan nan nan nan nan nan nan nan nan nan nan nan nan nan nan
Wind_Speed
28 26 25 22 20 21 20 18 14 12 10 9 8 6 5 5 5 7 8 9 10 11
30 27 25 25 24 24 23 20 17 14 11 10 8 7 6 6 6 6 8 10 11 12
32 29 28 29 28 27 24 21 18 15 12 10 9 8 6 6 6 7 9 11 12 14
32 31 31 33 32 29 25 20 18 13 12 11 8 7 6 6 8 9 11 12 13 14
33 31 36 32 31 29 23 17 14 15 12 9 7 6 6 7 9 10 11 12 13 15
33 34 33 29 27 23 18 17 16 13 10 8 7 6 7 8 10 12 13 14 15 16
32 31 29 26 20 18 18 17 14 11 9 7 6 6 7 9 10 11 13 14 16 18
27 24 23 22 23 21 17 14 11 9 6 5 6 6 8 10 12 13 13 15 17 19
27 25 24 24 21 18 16 13 9 7 5 4 6 8 10 11 13 15 18 19 20 21
28 27 25 22 19 17 14 11 8 6 4 5 7 9 12 14 16 17 20 21 22 23
28 26 23 21 18 15 12 9 6 4 4 6 9 12 15 17 17 19 20 22 23 24
26 24 22 19 16 13 10 7 5 4 5 8 12 15 18 19 20 20 22 23 23 25
25 22 20 17 14 11 7 5 4 5 9 12 14 16 18 20 21 22 24 24 25 24
23 20 17 14 11 8 5 3 5 9 11 13 14 15 17 19 21 24 26 26 27 27
Wind_Direction
211 213 215 219 213 209 211 216 225 241 252 265 252 246 258 275 292 308 320 325 323 319
210 213 217 217 210 211 214 219 224 230 230 237 232 238 249 268 293 312 319 320 319 316
211 215 214 216 213 213 213 218 216 217 216 212 228 237 258 284 301 311 314 316 316 314
212 213 213 216 210 212 211 211 216 204 208 210 226 245 266 285 300 309 314 316 315 316
215 212 200 194 200 203 210 194 195 201 204 214 231 249 271 289 303 312 316 319 317 315
198 199 195 196 200 197 193 192 197 199 206 223 236 258 280 299 310 316 320 319 319 319
198 192 195 193 186 182 187 191 193 200 217 228 251 275 294 306 312 313 315 314 314 316
188 187 185 182 182 182 182 188 197 205 215 240 265 283 299 305 308 309 308 307 310 313
183 179 179 179 177 179 183 187 190 202 223 257 285 299 304 308 309 310 311 311 312 314
178 178 176 176 177 178 180 183 189 204 242 277 295 304 308 311 312 312 311 313 316 318
174 174 173 174 174 176 177 182 196 218 264 294 305 309 310 310 309 309 310 314 318 318
173 174 173 173 173 174 178 185 205 252 286 307 307 307 307 310 311 310 312 315 317 321
171 174 170 171 170 174 181 200 244 294 300 302 305 309 311 310 310 312 313 318 322 323
166 168 168 168 169 177 192 233 288 295 303 305 305 307 309 310 313 317 318 322 323 324
Height
1544 1548 1551 1554 1556 1559 1561 1563 1563 1564 1565 1566 1566 1565 1565 1565 1564 1564 1562 1561 1560 1559
1540 1544 1548 1551 1553 1556 1557 1559 1560 1562 1562 1563 1564 1564 1563 1563 1562 1561 1560 1559 1558 1557
1536 1540 1544 1547 1549 1552 1554 1556 1557 1559 1560 1561 1562 1563 1562 1562 1560 1559 1558 1556 1555 1553
1531 1535 1539 1542 1545 1548 1550 1552 1554 1557 1558 1559 1559 1561 1560 1559 1558 1557 1555 1553 1552 1550
1527 1530 1534 1536 1539 1542 1545 1548 1552 1554 1556 1556 1557 1557 1558 1557 1556 1554 1553 1551 1549 1546
1522 1526 1529 1533 1537 1541 1543 1548 1551 1552 1553 1553 1555 1554 1554 1553 1553 1551 1549 1548 1545 1543
1520 1523 1527 1530 1534 1539 1543 1546 1548 1550 1551 1552 1552 1552 1551 1551 1549 1547 1546 1544 1542 1540
1518 1522 1526 1530 1534 1537 1541 1544 1546 1548 1549 1550 1550 1549 1548 1548 1546 1546 1543 1540 1538 1536
1517 1522 1527 1530 1533 1536 1539 1542 1544 1545 1546 1547 1547 1546 1545 1545 1543 1541 1540 1537 1534 1532
1517 1522 1526 1530 1533 1536 1538 1540 1541 1543 1544 1544 1543 1543 1542 1541 1540 1537 1535 1532 1528 1526
1516 1521 1525 1529 1532 1535 1537 1539 1541 1541 1541 1542 1541 1540 1537 1536 1535 1532 1530 1527 1524 1521
1516 1520 1525 1528 1531 1534 1536 1537 1539 1539 1539 1538 1537 1536 1533 1532 1530 1527 1525 1522 1519 1516
1515 1520 1523 1526 1529 1532 1534 1535 1536 1535 1535 1534 1533 1531 1530 1527 1525 1520 1518 1516 1514 1511
1514 1519 1522 1524 1527 1530 1532 1532 1533 1533 1532 1530 1529 1527 1525 1522 1519 1516 1512 1508 1506 1502